Dewpoint
54 53 54 54 54 53 53 54 55 54 54 55 54 54 53 56 55 55 55 55 55 54 53 53 53 53 54 54 54 54 53 54 55 55 55 57 57 58 60 61 61 61
53 53 52 52 52 53 54 55 55 54 54 55 54 54 54 55 54 54 54 54 54 53 52 52 52 51 52 52 53 54 53 54 53 54 55 55 55 56 57 59 61 62
52 52 52 52 52 53 53 54 55 55 55 54 55 55 54 53 54 54 54 54 53 52 52 51 50 50 50 50 51 52 52 53 54 54 54 54 55 55 55 57 58 61
52 52 51 52 53 53 53 54 54 54 54 53 54 54 54 54 54 53 53 51 52 50 50 50 50 49 48 48 50 50 50 51 51 53 53 54 54 54 55 55 56 58
51 51 50 51 52 53 52 51 52 52 53 53 53 53 52 52 53 52 52 52 52 50 49 48 48 48 48 47 48 49 49 49 50 51 52 52 53 53 54 55 55 55
51 49 48 49 50 51 50 50 50 51 52 52 52 52 52 52 51 50 48 48 48 48 47 47 46 46 46 46 47 47 48 48 48 49 49 50 51 52 52 53 53 54
50 50 49 49 50 50 50 50 51 51 52 52 52 51 51 50 48 46 44 45 44 45 44 45 45 45 46 46 45 45 46 47 46 47 47 47 49 50 51 51 52 52
51 50 50 49 50 50 50 49 50 51 52 51 50 50 50 47 44 46 45 44 43 43 43 43 44 43 44 44 44 44 45 46 46 45 45 46 48 48 49 50 51 51
50 49 49 50 50 50 49 48 50 50 49 50 49 48 48 47 46 45 44 43 42 43 42 42 42 42 44 44 44 44 43 44 46 45 45 45 46 46 47 48 49 50
49 49 50 49 49 49 49 49 49 50 49 49 47 49 46 47 46 43 43 43 43 42 41 41 42 42 43 43 43 43 43 43 43 44 44 44 44 45 45 46 47 49
50 49 49 49 49 49 50 49 49 49 50 46 48 47 46 47 45 44 43 42 43 40 40 41 42 42 43 43 44 44 44 43 43 43 43 43 44 44 46 45 46 47
50 49 49 49 49 49 49 49 49 49 48 49 46 45 45 45 45 43 42 40 39 40 41 41 42 42 42 42 42 43 43 44 43 43 43 43 43 44 44 45 45 46
48 48 48 48 49 49 49 48 47 48 46 44 46 45 45 45 43 41 41 41 40 40 41 41 41 42 42 42 42 42 43 43 43 42 42 43 43 43 43 44 45 45
48 49 48 48 49 49 48 49 48 49 48 48 47 47 45 42 41 41 40 40 41 41 41 41 41 41 41 41 41 41 41 42 42 42 42 42 43 43 43 43 44 45
48 47 48 48 47 47 48 47 46 48 48 47 47 45 44 42 41 40 40 40 40 41 41 41 42 42 41 41 41 41 41 41 41 41 42 42 42 42 43 43 43 44
45 47 46 47 47 47 46 46 45 47 47 46 44 43 42 41 40 40 40 40 40 40 40 42 42 42 42 41 41 42 41 40 41 41 41 41 42 42 43 43 43 44
43 44 45 45 45 45 47 44 44 46 47 46 44 43 42 41 41 39 39 40 39 39 39 41 41 41 40 38 38 39 41 41 40 40 40 40 40 40 40 41 43 43
43 44 44 44 44 42 43 44 46 45 44 43 42 41 42 43 41 40 39 39 40 39 39 39 40 40 38 38 38 38 39 41 40 40 40 40 39 39 39 40 40 41
42 42 42 43 43 43 46 47 44 44 42 41 41 42 44 41 40 40 39 39 39 38 38 38 38 38 37 37 37 37 37 39 39 40 39 39 39 39 39 39 39 40
41 40 41 43 45 46 46 43 43 42 43 43 42 43 44 41 40 40 39 39 38 38 37 37 37 38 37 37 37 36 36 37 38 38 38 38 38 38 39 38 39 39
39 39 41 43 43 43 44 42 43 44 41 41 43 42 42 41 39 39 39 39 39 38 37 37 38 37 36 36 36 36 36 36 37 38 38 38 38 38 38 38 38 39
40 43 45 44 42 42 41 41 42 42 41 43 42 42 42 42 40 39 39 38 37 36 36 36 36 36 35 36 36 36 36 37 37 38 37 37 37 37 37 37 37 38
40 42 44 44 42 41 40 42 42 41 41 42 41 41 41 39 38 38 37 36 36 36 36 35 35 35 35 35 35 35 36 36 37 37 36 36 36 36 36 36 37 37
39 38 39 41 41 39 42 43 43 42 39 41 40 38 38 37 37 36 36 36 35 35 35 35 34 35 35 35 35 35 36 35 37 37 36 36 36 36 37 36 37 40
41 42 43 43 43 43 43 42 42 41 40 41 40 39 38 36 35 35 35 35 34 34 37 35 33 34 34 34 35 35 36 36 36 36 36 36 36 36 36 37 37 38
44 43 44 44 42 42 42 42 41 40 40 39 41 36 34 35 35 34 34 34 34 33 33 33 32 32 33 34 34 34 35 35 36 35 35 35 35 35 36 36 36 36